Location: Anne Acres
(38.7004°N, 75.0827°W)
Time: 12:48:45
(UTC+00:00)

Vanguard 2 - All Passes

Search period start: 09 November 2024 00:00
Search period end: 19 November 2024 00:00
Orbit: 552 x 2910 km, 32.9° (Epoch: 08 November)

Date Brightness Start Highest point End Pass type
(mag) Time Alt. Az. Time Alt. Az. Time Alt. Az.
09 Nov - 13:13:38 10° SSW 13:19:29 28° SE 13:28:09 10° E daylight
09 Nov - 15:19:12 10° WSW 15:27:41 60° SSE 15:41:39 10° E daylight
09 Nov - 17:26:52 10° W 17:38:00 67° S 17:54:41 10° ESE daylight
09 Nov - 19:35:57 10° W 19:49:14 49° SSW 20:05:47 10° SE daylight
09 Nov - 21:48:05 10° W 21:59:55 24° SW 22:12:17 10° S daylight
10 Nov - 13:26:36 10° SSW 13:32:44 35° SSE 13:42:15 10° E daylight
10 Nov - 15:32:45 10° WSW 15:41:18 64° S 15:55:28 10° E daylight
10 Nov - 17:40:33 10° W 17:51:43 63° S 18:08:17 10° ESE daylight
10 Nov - 19:49:52 10° W 20:02:47 43° SSW 20:18:42 10° SE daylight
10 Nov - 22:03:25 10° WSW 22:13:14 19° SW 22:23:27 10° S visible
11 Nov - 11:38:21 10° SE 11:39:20 10° SE 11:40:22 10° SE daylight
11 Nov - 13:39:46 10° SW 13:46:05 42° SSE 13:56:13 10° E daylight
11 Nov - 15:46:19 10° WSW 15:54:58 65° S 16:09:15 10° E daylight
11 Nov - 17:54:16 10° W 18:05:25 58° SSW 18:21:46 10° ESE daylight
11 Nov - 20:03:56 10° W 20:16:19 36° SSW 20:31:20 10° SSE daylight
11 Nov - 22:20:13 10° WSW 22:26:34 13° SW 22:33:07 10° SSW visible
12 Nov - 11:49:07 10° S 11:52:26 15° SE 11:56:32 10° ESE daylight
12 Nov - 13:53:06 10° SW 13:59:31 48° SSE 14:10:06 10° E daylight
12 Nov - 15:59:55 10° W 16:08:38 65° S 16:23:00 10° ESE daylight
12 Nov - 18:08:00 10° W 18:19:04 53° SSW 18:35:05 10° SE daylight
12 Nov - 20:18:14 10° W 20:29:48 29° SSW 20:43:36 10° SSE daylight
13 Nov - 12:01:29 10° S 12:05:36 21° SE 12:11:09 10° E daylight
13 Nov - 14:06:31 10° WSW 14:13:02 54° SSE 14:23:56 10° E daylight
13 Nov - 16:13:34 10° W 16:22:19 63° S 16:36:42 10° ESE daylight
13 Nov - 18:21:49 10° W 18:32:43 46° SSW 18:48:12 10° SE daylight
13 Nov - 20:32:54 10° W 20:43:18 23° SW 20:55:23 10° S daylight
14 Nov - 12:14:19 10° SSW 12:18:51 27° SSE 12:25:20 10° E daylight
14 Nov - 14:20:01 10° WSW 14:26:36 58° S 14:37:44 10° E daylight
14 Nov - 16:27:13 10° W 16:36:00 59° S 16:50:16 10° ESE daylight
14 Nov - 18:35:43 10° W 18:46:20 40° SSW 19:01:04 10° SE daylight
14 Nov - 20:48:14 10° WSW 20:56:47 18° SW 21:06:24 10° S daylight
15 Nov - 12:27:24 10° SW 12:32:11 33° SSE 12:39:20 10° E daylight
15 Nov - 14:33:33 10° WSW 14:40:13 60° S 14:51:30 10° E daylight
15 Nov - 16:40:54 10° W 16:49:40 54° SSW 17:03:44 10° ESE daylight
15 Nov - 18:49:47 10° W 18:59:56 33° SSW 19:13:39 10° SSE daylight
15 Nov - 21:05:18 10° WSW 21:10:17 12° SW 21:15:37 10° SSW daylight
16 Nov - 12:40:40 10° SW 12:45:36 40° SSE 12:53:12 10° E daylight
16 Nov - 14:47:08 10° WSW 14:53:51 60° S 15:05:12 10° ESE daylight
16 Nov - 16:54:38 10° W 17:03:20 48° SSW 17:17:02 10° SE daylight
16 Nov - 19:04:06 10° W 19:13:32 27° SSW 19:25:50 10° SSE daylight
17 Nov - 10:49:31 10° S 10:52:03 15° SE 10:55:01 10° ESE visible
17 Nov - 12:54:03 10° WSW 12:59:04 46° SSE 13:07:00 10° E daylight
17 Nov - 15:00:45 10° W 15:07:30 57° S 15:18:51 10° ESE daylight
17 Nov - 17:08:25 10° W 17:16:59 41° SSW 17:30:06 10° SE daylight
17 Nov - 19:18:50 10° WSW 19:27:08 20° SSW 19:37:27 10° S daylight
18 Nov - 11:02:04 10° SSW 11:05:20 20° SSE 11:09:26 10° ESE visible
18 Nov - 13:07:31 10° WSW 13:12:37 50° S 13:20:45 10° E daylight
18 Nov - 15:14:22 10° W 15:21:09 53° S 15:32:24 10° ESE daylight
18 Nov - 17:22:21 10° W 17:30:38 34° SSW 17:42:56 10° SE daylight
18 Nov - 19:34:27 10° WSW 19:40:44 15° SW 19:48:05 10° S daylight
